Carlsbad, NM

1:03 AM MDT on October 17, 2017 (GMT -0600)
Cavern City

Weather History for KCNM - February, 2012

Change the Weather History Date:

Monday, February 6, 2012

  Actual Average Record
Temperature  
Mean Temperature 40 °F -  
Max Temperature 55 °F 56 °F 84 °F (2009)
Min Temperature 25 °F 29 °F 12 °F (1989)
Degree Days  
Heating Degree Days 25    
Moisture  
Dew Point 23 °F    
Average Humidity 53    
Maximum Humidity 75    
Minimum Humidity 33    
Precipitation  
Precipitation 0.00 in - - ()
Sea Level Pressure  
Sea Level Pressure 30.13 in    
Wind  
Wind Speed 7 mph (SSE)    
Max Wind Speed 17 mph    
Max Gust Speed 23 mph    
Visibility 10 miles    
Events      
Averages and records for this station are not official NWS values.
T = Trace of Precipitation, MM = Missing Value Source: NWS Daily Summary

Daily Weather History Graph

Daily Weather History Graph

Search for Another Location

Airport or City:

Trip Planner

Search our weather history database for the weather conditions in past years. The results will help you decide how hot, cold, wet, or windy it might be!

Date:

Astronomy

Feb. 06, 2012 Rise Set
Actual Time 6:47 AM MST 5:34 PM MST
Civil Twilight 6:22 AM MST 6:00 PM MST
Nautical Twilight 5:53 AM MST 6:29 PM MST
Astronomical Twilight 5:24 AM MST 6:58 PM MST
Moon 4:41 PM MST (2/6) 5:39 AM MST (2/6)
Length of Visible Light 11h 37m
Length of Day
10h 46m
Waxing Gibbous, 98% of the Moon is Illuminated
Feb 6
Waxing Gibbous
Feb 7
Full
Feb 14
Last Quarter
Feb 21
New
Feb 29
First Quarter

Hourly Weather History & Observations

Time (MST) Temp. Windchill Dew Point Humidity Pressure Visibility Wind Dir Wind Speed Gust Speed Precip Events Conditions
12:53 AM 27.0 °F 21.6 °F 18.0 °F 69% 30.28 in 10.0 mi North 4.6 mph - N/A   Partly Cloudy
1:53 AM 32.0 °F 28.7 °F 19.0 °F 59% 30.26 in 10.0 mi ENE 3.5 mph - N/A   Overcast
2:53 AM 28.9 °F 25.2 °F 19.0 °F 67% 30.25 in 10.0 mi NE 3.5 mph - N/A   Partly Cloudy
3:53 AM 25.0 °F 19.3 °F 17.1 °F 72% 30.25 in 10.0 mi North 4.6 mph - N/A   Clear
4:53 AM 27.0 °F - 19.0 °F 72% 30.23 in 10.0 mi Calm Calm - N/A   Overcast
5:53 AM 28.9 °F - 19.9 °F 69% 30.24 in 10.0 mi Calm Calm - N/A   Overcast
6:53 AM 28.0 °F - 19.0 °F 69% 30.26 in 10.0 mi Calm Calm - N/A   Clear
7:53 AM 26.1 °F - 19.0 °F 75% 30.29 in 10.0 mi Calm Calm - N/A   Clear
8:53 AM 34.0 °F 31.0 °F 21.0 °F 59% 30.26 in 10.0 mi SE 3.5 mph - N/A   Clear
9:53 AM 43.0 °F 35.4 °F 21.9 °F 43% 30.22 in 10.0 mi SSE 16.1 mph - N/A   Clear
10:53 AM 46.0 °F 39.9 °F 23.0 °F 40% 30.19 in 10.0 mi SSE 13.8 mph 21.9 mph N/A   Partly Cloudy
11:53 AM 48.9 °F - 23.0 °F 36% 30.14 in 10.0 mi South 16.1 mph 21.9 mph N/A   Clear
12:53 PM 51.1 °F - 25.0 °F 36% 30.09 in 10.0 mi South 15.0 mph - N/A   Clear
1:53 PM 53.1 °F - 25.0 °F 34% 30.03 in 10.0 mi SSE 15.0 mph 23.0 mph N/A   Clear
2:53 PM 54.0 °F - 26.1 °F 34% 30.01 in 10.0 mi SSE 17.3 mph 23.0 mph N/A   Clear
3:53 PM 55.0 °F - 26.1 °F 33% 30.01 in 10.0 mi SE 12.7 mph - N/A   Clear
4:53 PM 53.1 °F - 26.1 °F 35% 30.00 in 10.0 mi SE 13.8 mph - N/A   Clear
5:53 PM 50.0 °F - 26.1 °F 39% 30.00 in 10.0 mi SSE 10.4 mph - N/A   Clear
6:53 PM 46.0 °F 42.5 °F 26.1 °F 46% 30.02 in 10.0 mi SSE 6.9 mph - N/A   Clear
7:53 PM 41.0 °F 38.0 °F 25.0 °F 53% 30.04 in 10.0 mi South 4.6 mph - N/A   Clear
8:53 PM 43.0 °F 37.2 °F 26.1 °F 51% 30.03 in 10.0 mi South 10.4 mph - N/A   Clear
9:53 PM 41.0 °F 35.8 °F 26.1 °F 55% 30.02 in 10.0 mi South 8.1 mph - N/A   Clear
10:53 PM 39.9 °F 33.9 °F 27.0 °F 60% 30.00 in 10.0 mi South 9.2 mph - N/A   Clear
11:53 PM 39.9 °F 35.1 °F 27.0 °F 60% 30.01 in 10.0 mi South 6.9 mph - N/A   Clear